Tracking 19827 objects as of 22-Aug-2019
HD Live streaming from Space Station
objects crossing your sky now

FENGYUN 1C DEB

Track FENGYUN 1C DEB now!
10-day predictions


NORAD ID: 31611
Int'l Code: 1999-025BZR
Perigee: 704.6 km
Apogee: 863.3 km
Inclination: 99.0 °
Period: 100.4 minutes
Semi major axis: 7154 km
RCS: 0.0063 m2 (small)
Launch date: May 10, 1999
Source: People's Republic of China (PRC)
Launch site: Taiyaun Space Center, China (TSC)

Note: This is SATELLITE DEBRIS
aabbcc
Your satellite tracking list
Your tracking list is empty




NASA's NSSDC Master Catalog

Two Line Element Set (TLE):
1 31611U 99025BZR 19232.85889035 +.00001358 +00000-0 +46606-3 0  9992
2 31611 098.9799 010.3739 0110921 213.0125 301.3130 14.34480656339092
Source of the keplerian elements: AFSPC